Location: Black Swamp Observatory
(41.3920°N, 84.1250°W)
Time: 15:25:53
(UTC-05:00)

Amateur Radio Satellites - All Passes

Search period start: 22 January 2017 14:55
Search period end: 23 January 2017 14:55
Location: Black Swamp Observatory, 41.3920°N, 84.1250°W

Satellite Date Start Highest point End Downlink Frequencies (MHz)
Time Altitude Azimuth
AIST 1 22 Jan 14:57:46 15:01:37 30° 284° (WNW) 15:05:30
Oscar 19 22 Jan 15:00:28 15:00:57 10° 272° (W) 15:01:27 437.125/150
Cosmos 2504 22 Jan 15:12:51 15:21:30 79° 95° (E) 15:29:38 435.465 / 435.565
BEESAT 3 22 Jan 15:12:51 15:15:09 15° 110° (ESE) 15:17:29 437.485
Cosmos 2491 22 Jan 15:21:46 15:28:25 25° 279° (W) 15:35:06 435.465 / 435.565
AO-85 22 Jan 15:21:54 15:25:10 19° 315° (NW) 15:28:16 145.980
YUBILEINY 22 Jan 15:25:07 15:33:43 55° 283° (WNW) 15:42:24 435.215
ITUPSAT 1 22 Jan 15:31:13 15:36:04 85° 106° (ESE) 15:40:53 437.325
O/OREOS (USA 219) 22 Jan 15:32:34 15:36:36 31° 60° (ENE) 15:40:38 437.305
DANDE 22 Jan 15:36:24 15:44:23 78° 263° (W) 15:52:42 436.750
MOZHAYETS 4 22 Jan 15:39:35 15:43:48 33° 97° (E) 15:48:00
ITAMSAT 1 22 Jan 15:43:29 15:48:09 35° 263° (W) 15:52:53 435.822/435.867
BEESAT 2 22 Jan 16:01:47 16:04:53 22° 113° (ESE) 16:08:02 435.950
KKS-1 22 Jan 16:03:20 16:06:19 18° 93° (E) 16:09:17 437.445
BEESAT 22 Jan 16:04:32 16:09:04 44° 290° (WNW) 16:13:36 436.000
SWISSCUBE 22 Jan 16:06:31 16:10:57 38° 290° (WNW) 16:15:22 437.505
CUSAT 1 22 Jan 16:08:29 16:13:38 19° 280° (W) 16:18:31 437.405
HORYU 2 22 Jan 16:11:25 16:14:18 17° 64° (ENE) 16:17:11 437.375
GOMX 1 22 Jan 16:16:51 16:20:41 21° 66° (ENE) 16:24:25 467.674
NOAA 15 22 Jan 16:19:52 16:20:38 10° 56° (NE) 16:21:25 137.62
BRITE-PL 22 Jan 16:22:53 16:28:25 55° 73° (ENE) 16:33:52 437.365/2234.400
SO-50 22 Jan 16:27:58 16:32:28 67° 55° (NE) 16:36:54 436.795
CUBESAT XI-V 22 Jan 16:32:16 16:35:34 19° 92° (E) 16:38:50 437.345
AUBIESAT-1 22 Jan 16:32:38 16:35:16 22° 101° (E) 16:37:52 437.475
AO-7 22 Jan 16:45:05 16:51:53 27° 265° (W) 16:58:46 29.400- 29.500
DOVE 4 22 Jan 16:45:19 16:47:52 14° 64° (ENE) 16:50:20 437.250
BEESAT 3 22 Jan 16:48:38 16:52:23 45° 307° (NW) 16:56:11 437.485
STARS 22 Jan 16:49:27 16:53:02 25° 95° (E) 16:56:37 437.465
Cosmos 2504 22 Jan 17:09:22 17:15:40 22° 294° (WNW) 17:21:44 435.465 / 435.565
CUTE-I 22 Jan 17:10:54 17:15:24 29° 66° (ENE) 17:19:55 437.470
ITUPSAT 1 22 Jan 17:11:30 17:13:10 12° 301° (WNW) 17:14:50 437.325
O/OREOS (USA 219) 22 Jan 17:12:10 17:15:51 25° 257° (WSW) 17:19:33 437.305
MOZHAYETS 4 22 Jan 17:17:01 17:20:47 25° 293° (WNW) 17:24:33
LilacSat-2 22 Jan 17:17:24 17:20:32 25° 70° (ENE) 17:23:42 437.200
DANDE 22 Jan 17:21:27 17:26:02 16° 280° (W) 17:30:43 436.750
YUBILEINY 22 Jan 17:31:44 17:32:54 10° 307° (NW) 17:34:03 435.215
M-CUBED/EXP-1 PRIME 22 Jan 17:32:02 17:35:11 39° 292° (WNW) 17:38:14 437.505
KKS-1 22 Jan 17:38:52 17:43:04 42° 289° (WNW) 17:47:13 437.445
BEESAT 2 22 Jan 17:38:55 17:42:30 32° 310° (NW) 17:46:08 435.950
HORYU 2 22 Jan 17:46:15 17:50:28 46° 260° (W) 17:54:44 437.375
HO-68 22 Jan 17:46:46 17:51:44 21° 56° (NE) 17:56:41 435.675
GOMX 1 22 Jan 17:53:09 17:58:24 53° 260° (W) 18:03:26 467.674
Cubesat XI-IV 22 Jan 17:53:57 17:59:13 69° 73° (ENE) 18:04:30 437.490
NOAA 15 22 Jan 17:54:12 17:59:28 74° 73° (ENE) 18:04:47 137.62
CINEMA 3 22 Jan 17:56:22 17:58:56 16° 65° (ENE) 18:01:28 145.822/145.860
BRITE-PL 22 Jan 18:02:52 18:07:07 22° 268° (W) 18:11:22 437.365/2234.400
AUBIESAT-1 22 Jan 18:07:10 18:09:36 19° 297° (WNW) 18:12:01 437.475
CUBESAT XI-V 22 Jan 18:08:41 18:13:09 44° 288° (WNW) 18:17:33 437.345
SO-50 22 Jan 18:10:19 18:12:20 13° 252° (WSW) 18:14:20 436.795
NOAA 18 22 Jan 18:17:48 18:23:14 65° 72° (ENE) 18:28:40 137.9125
DOVE 4 22 Jan 18:20:09 18:25:05 67° 259° (W) 18:29:46 437.250
GONETS M04 22 Jan 18:21:24 18:25:43 15° 75° (ENE) 18:30:02
AIST 2 22 Jan 18:22:02 18:24:15 14° 109° (ESE) 18:26:30 435.215
STARS 22 Jan 18:25:34 18:29:21 30° 292° (WNW) 18:33:09 437.465
CUTE 1.7 + AOD 2 22 Jan 18:33:38 18:36:51 21° 67° (ENE) 18:40:06 437.475
CUTE-I 22 Jan 18:50:26 18:55:18 37° 263° (W) 19:00:12 437.470
LilacSat-2 22 Jan 18:51:52 18:54:47 21° 266° (W) 18:57:43 437.200
UWE-3 22 Jan 18:59:52 19:00:26 10° 62° (ENE) 19:01:00 435.000/436.395/437.385
CANX-2 22 Jan 19:02:20 19:06:27 50° 73° (ENE) 19:10:36 2200.000
SEEDS 22 Jan 19:08:30 19:12:17 33° 71° (ENE) 19:16:08 437.485
COMPASS 1 22 Jan 19:09:38 19:12:57 23° 68° (ENE) 19:16:17 437.405
STRAND 1 22 Jan 19:15:34 19:19:56 27° 95° (E) 19:24:17 437.568
AAUSAT CUBESAT 2 22 Jan 19:18:26 19:21:40 22° 67° (ENE) 19:24:55 437.432
Cosmos 2499 22 Jan 19:19:34 19:27:27 47° 90° (E) 19:34:48 435.465 / 435.565
HO-68 22 Jan 19:31:23 19:38:36 84° 255° (WSW) 19:45:51 435.675
CINEMA 3 22 Jan 19:31:29 19:35:43 48° 261° (W) 19:39:51 145.822/145.860
Cubesat XI-IV 22 Jan 19:36:52 19:39:47 15° 270° (W) 19:42:42 437.490
NOAA 15 22 Jan 19:37:10 19:39:46 14° 270° (W) 19:42:24 137.62
Oscar 11 22 Jan 19:42:14 19:44:59 17° 65° (ENE) 19:47:45 145.826/435.025
AIST 2 22 Jan 19:58:13 20:02:15 54° 306° (NW) 20:06:22 435.215
NOAA 18 22 Jan 20:00:56 20:04:20 17° 268° (W) 20:07:46 137.9125
CUTE 1.7 + AOD 2 22 Jan 20:08:37 20:12:29 33° 264° (W) 20:16:22 437.475
CUBEBUG 2 22 Jan 20:09:08 20:13:17 81° 255° (WSW) 20:17:27 437.445
GONETS M04 22 Jan 20:12:18 20:20:59 80° 95° (E) 20:29:46
DELFI C3 22 Jan 20:15:11 20:16:35 12° 63° (ENE) 20:18:00 145.870
FUNcube-1 22 Jan 20:20:38 20:24:33 43° 72° (ENE) 20:28:31 145.935
UWE-3 22 Jan 20:32:10 20:36:17 72° 258° (WSW) 20:40:27 435.000/436.395/437.385
HUMSAT D 22 Jan 20:36:20 20:37:42 11° 62° (ENE) 20:39:04 437.325/437.525
CANX-2 22 Jan 20:40:22 20:42:36 14° 269° (W) 20:44:49 2200.000
COMPASS 1 22 Jan 20:44:39 20:48:20 30° 264° (W) 20:52:05 437.405
SEEDS 22 Jan 20:44:53 20:48:03 20° 267° (W) 20:51:15 437.485
ZACube-1 22 Jan 20:45:01 20:49:09 87° 261° (W) 20:53:21 437.345
AAUSAT CUBESAT 2 22 Jan 20:53:14 20:56:58 31° 264° (W) 21:00:42 437.432
STRAND 1 22 Jan 20:54:28 20:59:09 36° 292° (WNW) 21:03:48 437.568
Cosmos 2499 22 Jan 21:13:13 21:20:40 36° 287° (WNW) 21:27:42 435.465 / 435.565
Oscar 11 22 Jan 21:16:36 21:20:44 45° 261° (W) 21:24:55 145.826/435.025
HO-68 22 Jan 21:23:45 21:27:16 14° 272° (W) 21:30:49 435.675
ISS 22 Jan 21:34:21 21:37:28 44° 139° (SE) 21:40:36 145.825
DELFI C3 22 Jan 21:46:54 21:50:51 60° 259° (W) 21:54:52 145.870
UNISAT 6 22 Jan 21:49:10 21:52:16 18° 93° (E) 21:55:24 437.425
BY70-1 22 Jan 21:53:07 21:54:55 15° 66° (ENE) 21:56:48 436.1900
FUNcube-1 22 Jan 21:58:42 22:01:02 15° 269° (W) 22:03:24 145.935
TIGRISAT 22 Jan 22:01:20 22:04:52 23° 94° (E) 22:08:27 435.000
HUMSAT D 22 Jan 22:08:40 22:12:44 65° 259° (W) 22:16:53 437.325/437.525
ESTCUBE 1 22 Jan 22:08:55 22:12:00 18° 64° (ENE) 22:15:05 437.505/2401.250
AO-85 22 Jan 22:11:19 22:15:06 44° 53° (NE) 22:18:50 145.980
GONETS M04 22 Jan 22:12:23 22:18:50 22° 296° (WNW) 22:25:22
PRISM 22 Jan 22:12:53 22:17:01 79° 284° (WNW) 22:21:04 437.425
ANTELSAT 22 Jan 22:16:49 22:20:56 35° 98° (E) 22:25:06 437.575/2403.000
CUBEBUG 1 22 Jan 22:47:39 22:51:17 26° 68° (ENE) 22:54:55 437.445
50 SAT 22 Jan 22:57:22 22:58:42 12° 65° (ENE) 23:00:02 437.505
RS-15 22 Jan 23:00:34 23:11:41 51° 110° (ESE) 23:23:16 29.354- 29.394
PCSat 22 Jan 23:08:30 23:10:12 11° 102° (ESE) 23:11:55 145.827
AISAT 22 Jan 23:10:54 23:14:45 30° 69° (ENE) 23:18:39 437.250
ISS 22 Jan 23:11:13 23:14:03 27° 336° (NNW) 23:16:55 145.825
POPSAT HIP 1 22 Jan 23:12:34 23:14:18 12° 91° (E) 23:16:02 437.405
DUCHIFAT 1 22 Jan 23:19:50 23:21:42 13° 91° (E) 23:23:34 145.980
JAS-2 22 Jan 23:20:39 23:27:54 59° 100° (E) 23:35:35 435.910
BY70-1 22 Jan 23:22:15 23:24:54 26° 264° (W) 23:27:43 436.1900
UNISAT 6 22 Jan 23:24:55 23:29:08 43° 288° (WNW) 23:33:26 437.425
NANOSAT C BR1 22 Jan 23:26:05 23:28:49 17° 93° (E) 23:31:32 145.865
BEESAT 3 22 Jan 23:29:06 23:31:02 13° 40° (NE) 23:32:59 437.485
TIGRISAT 22 Jan 23:37:34 23:41:35 34° 290° (WNW) 23:45:41 435.000
YUBILEINY 22 Jan 23:40:24 23:45:22 16° 59° (ENE) 23:50:17 435.215
VELOX 1 22 Jan 23:43:29 23:47:52 64° 74° (ENE) 23:52:17 145.980
ESTCUBE 1 22 Jan 23:44:04 23:48:26 46° 261° (W) 23:52:50 437.505/2401.250
SPROUT 22 Jan 23:52:09 23:56:18 56° 74° (ENE) 00:00:29 437.525
AO-85 22 Jan 23:52:52 23:55:05 15° 249° (WSW) 23:57:18 145.980
ANTELSAT 22 Jan 23:53:57 23:57:26 23° 293° (WNW) 00:00:59 437.575/2403.000
UKube-1 23 Jan 00:00:45 00:04:39 34° 70° (ENE) 00:08:34 .
DX 1 23 Jan 00:06:41 00:10:56 55° 73° (ENE) 00:15:13 434.975-435.025
QB50P1 23 Jan 00:18:58 00:23:11 73° 101° (ESE) 00:27:25 145.935-145.965
BEESAT 2 23 Jan 00:19:12 00:22:00 18° 44° (NE) 00:24:46 435.950
CUBEBUG 1 23 Jan 00:23:37 00:27:27 29° 264° (W) 00:31:17 437.445
POLYITAN 1 23 Jan 00:24:00 00:28:15 84° 100° (E) 00:32:31 437.675
QB50P2 23 Jan 00:25:23 00:29:37 88° 288° (WNW) 00:33:52 145.880/145.840
50 SAT 23 Jan 00:28:03 00:31:29 45° 261° (W) 00:34:57 437.505
Cosmos 2491 23 Jan 00:33:29 00:37:46 15° 75° (ENE) 00:42:05 435.465 / 435.565
PHONESAT 2.4 23 Jan 00:39:30 00:40:38 13° 154° (SSE) 00:41:46 2401.200-2431.200
POPSAT HIP 1 23 Jan 00:46:16 00:50:24 56° 287° (WNW) 00:54:33 437.405
PCSat 23 Jan 00:47:20 00:52:45 89° 118° (ESE) 00:58:12 145.827
AISAT 23 Jan 00:47:32 00:51:12 25° 265° (W) 00:54:53 437.250
ISS 23 Jan 00:49:34 00:51:21 14° 356° (N) 00:53:08 145.825
DUCHIFAT 1 23 Jan 00:53:35 00:57:42 53° 286° (WNW) 01:01:47 145.980
NANOSAT C BR1 23 Jan 01:00:45 01:04:42 40° 288° (WNW) 01:08:39 145.865
ITUPSAT 1 23 Jan 01:03:43 01:05:26 12° 59° (ENE) 01:07:09 437.325
AIST 1 23 Jan 01:03:59 01:08:13 62° 80° (E) 01:12:25
BEESAT 3 23 Jan 01:05:11 01:09:11 80° 240° (WSW) 01:13:10 437.485
JAS-2 23 Jan 01:06:21 01:12:31 31° 296° (WNW) 01:19:04 435.910
Cosmos 2504 23 Jan 01:06:43 01:12:38 25° 68° (ENE) 01:18:22 435.465 / 435.565
TISAT 1 23 Jan 01:10:21 01:14:26 60° 74° (ENE) 01:18:33 437.305
RS-15 23 Jan 01:12:29 01:24:09 55° 314° (NW) 01:36:16 29.354- 29.394
BUGSAT 1 23 Jan 01:16:49 01:20:53 83° 284° (WNW) 01:24:57 437.445
VELOX 1 23 Jan 01:23:06 01:24:44 12° 270° (W) 01:26:23 145.980
Oscar 19 23 Jan 01:27:38 01:32:14 32° 96° (E) 01:36:46 437.125/150
SPROUT 23 Jan 01:30:50 01:32:34 12° 270° (W) 01:34:18 437.525
BEESAT 23 Jan 01:34:04 01:37:50 24° 66° (ENE) 01:41:36 436.000
YUBILEINY 23 Jan 01:34:57 01:43:49 77° 81° (E) 01:52:34 435.215
SWISSCUBE 23 Jan 01:35:44 01:39:43 27° 67° (ENE) 01:43:44 437.505
UKube-1 23 Jan 01:37:27 01:40:44 21° 266° (W) 01:44:02 .
DX 1 23 Jan 01:45:17 01:47:27 13° 269° (W) 01:49:36 434.975-435.025
CUSAT 1 23 Jan 01:48:18 01:50:13 12° 75° (ENE) 01:52:16 437.405
BEESAT 2 23 Jan 01:56:08 02:00:04 53° 242° (WSW) 02:03:59 435.950
QB50P1 23 Jan 01:57:21 01:58:22 11° 298° (WNW) 01:59:22 145.935-145.965
Gurwin Techsat 1B 23 Jan 02:03:49 02:08:46 37° 98° (E) 02:13:39 435.225
PHONESAT 2.4 23 Jan 02:12:00 02:14:09 49° 170° (S) 02:16:19 2401.200-2431.200
Cosmos 2491 23 Jan 02:24:24 02:33:05 80° 94° (E) 02:41:50 435.465 / 435.565
ISS 23 Jan 02:26:21 02:28:47 19° 17° (NNE) 02:31:12 145.825
PCSat 23 Jan 02:33:27 02:36:54 17° 318° (NW) 02:40:23 145.827
ITUPSAT 1 23 Jan 02:37:47 02:42:33 83° 258° (WSW) 02:47:22 437.325
MOZHAYETS 4 23 Jan 02:41:27 02:45:31 32° 69° (ENE) 02:49:36
AIST 2 23 Jan 02:42:13 02:44:28 14° 40° (NE) 02:46:43 435.215
M-CUBED/EXP-1 PRIME 23 Jan 02:44:03 02:47:09 20° 63° (ENE) 02:50:07 437.505
AIST 1 23 Jan 02:44:36 02:45:12 10° 277° (W) 02:45:47
TISAT 1 23 Jan 02:49:11 02:50:26 11° 270° (W) 02:51:41 437.305
AO-7 23 Jan 02:53:21 02:59:09 20° 91° (E) 03:04:54 29.400- 29.500
Cosmos 2504 23 Jan 02:59:21 03:06:29 57° 268° (W) 03:13:26 435.465 / 435.565
KKS-1 23 Jan 03:01:43 03:04:40 18° 64° (ENE) 03:07:36 437.445
DANDE 23 Jan 03:06:21 03:08:01 12° 77° (ENE) 03:09:50 436.750
Oscar 19 23 Jan 03:06:57 03:11:29 32° 293° (WNW) 03:15:59 437.125/150
BEESAT 23 Jan 03:11:00 03:15:23 37° 262° (W) 03:19:50 436.000
SWISSCUBE 23 Jan 03:13:09 03:17:23 32° 263° (W) 03:21:39 437.505
AUBIESAT-1 23 Jan 03:17:24 03:21:14 35° 67° (ENE) 03:24:51 437.475
CUSAT 1 23 Jan 03:25:10 03:30:30 83° 98° (E) 03:37:28 437.405
RS-15 23 Jan 03:30:46 03:40:24 25° 345° (NNW) 03:50:09 29.354- 29.394
YUBILEINY 23 Jan 03:33:19 03:39:35 22° 281° (W) 03:45:51 435.215
CUBESAT XI-V 23 Jan 03:35:44 03:39:05 20° 65° (ENE) 03:42:27 437.345
Gurwin Techsat 1B 23 Jan 03:44:03 03:48:32 28° 294° (WNW) 03:53:01 435.225
PHONESAT 2.4 23 Jan 03:45:42 03:47:54 65° 185° (S) 03:50:06 2401.200-2431.200
STARS 23 Jan 03:46:15 03:49:41 23° 67° (ENE) 03:53:08 437.465
ITAMSAT 1 23 Jan 03:55:28 04:00:42 82° 104° (ESE) 04:05:56 435.822/435.867
ISS 23 Jan 04:02:24 04:05:40 82° 39° (NE) 04:08:54 145.825
M-CUBED/EXP-1 PRIME 23 Jan 04:17:24 04:21:25 37° 256° (WSW) 04:25:13 437.505
MOZHAYETS 4 23 Jan 04:18:56 04:22:41 25° 266° (W) 04:26:28
AIST 2 23 Jan 04:19:15 04:23:31 84° 238° (WSW) 04:27:45 435.215
Cosmos 2491 23 Jan 04:24:32 04:30:57 22° 296° (WNW) 04:37:26 435.465 / 435.565
BRITE-PL 23 Jan 04:29:55 04:32:36 15° 89° (E) 04:35:10 437.365/2234.400
KKS-1 23 Jan 04:36:36 04:40:52 46° 260° (W) 04:45:09 437.445
AO-7 23 Jan 04:44:24 04:52:49 84° 290° (WNW) 05:01:08 29.400- 29.500
DANDE 23 Jan 04:45:29 04:49:31 60° 284° (WNW) 04:55:00 436.750
AUBIESAT-1 23 Jan 04:52:38 04:55:40 19° 260° (W) 04:58:36 437.475
CUSAT 1 23 Jan 05:09:57 05:13:41 17° 302° (WNW) 05:17:54 437.405
CUBESAT XI-V 23 Jan 05:11:37 05:16:07 45° 262° (W) 05:20:39 437.345
Cosmos 2499 23 Jan 05:12:48 05:16:02 13° 61° (ENE) 05:19:15 435.465 / 435.565
PHONESAT 2.4 23 Jan 05:19:44 05:21:32 21° 201° (SSW) 05:23:20 2401.200-2431.200
STARS 23 Jan 05:21:55 05:25:51 32° 263° (W) 05:29:48 437.465
CUTE-I 23 Jan 05:30:36 05:31:18 10° 88° (E) 05:32:00 437.470
ITAMSAT 1 23 Jan 05:36:54 05:39:28 14° 301° (WNW) 05:42:02 435.822/435.867
HORYU 2 23 Jan 05:36:57 05:40:55 31° 97° (E) 05:44:54 437.375
ISS 23 Jan 05:40:45 05:41:41 11° 231° (SW) 05:42:36 145.825
O/OREOS (USA 219) 23 Jan 05:44:55 05:48:58 35° 105° (ESE) 05:53:02 437.305
RS-15 23 Jan 05:48:29 05:58:38 28° 21° (NNE) 06:08:36 29.354- 29.394
GOMX 1 23 Jan 05:55:27 05:59:38 43° 98° (E) 06:03:36 467.674
BRITE-PL 23 Jan 06:06:52 06:11:32 52° 288° (WNW) 06:15:50 437.365/2234.400
NOAA 15 23 Jan 06:09:46 06:14:16 27° 95° (E) 06:18:43 137.62
Cubesat XI-IV 23 Jan 06:11:32 06:16:03 27° 95° (E) 06:20:32 437.490
DOVE 4 23 Jan 06:19:22 06:23:00 28° 96° (E) 06:26:37 437.250
GONETS M04 23 Jan 06:22:42 06:30:55 40° 72° (ENE) 06:39:04
LilacSat-2 23 Jan 06:24:00 06:27:38 37° 98° (E) 06:31:15 437.200
STRAND 1 23 Jan 06:31:23 06:36:05 39° 69° (ENE) 06:40:50 437.568
AO-7 23 Jan 06:38:44 06:44:23 21° 310° (NW) 06:50:01 29.400- 29.500
NOAA 18 23 Jan 06:40:16 06:44:50 27° 95° (E) 06:49:21 137.9125
SO-50 23 Jan 06:42:57 06:46:32 22° 112° (ESE) 06:50:05 436.795
HO-68 23 Jan 07:00:37 07:05:21 18° 90° (E) 07:10:03 435.675
Cosmos 2499 23 Jan 07:03:16 07:10:26 82° 82° (E) 07:17:31 435.465 / 435.565
CUTE-I 23 Jan 07:06:41 07:12:04 87° 109° (ESE) 07:17:25 437.470
HORYU 2 23 Jan 07:13:41 07:17:20 25° 293° (WNW) 07:20:57 437.375
O/OREOS (USA 219) 23 Jan 07:24:51 07:28:26 23° 302° (WNW) 07:32:03 437.305
CINEMA 3 23 Jan 07:25:33 07:29:26 35° 98° (E) 07:33:26 145.822/145.860
GOMX 1 23 Jan 07:34:36 07:37:21 16° 296° (WNW) 07:39:59 467.674
NOAA 15 23 Jan 07:49:13 07:54:06 38° 292° (WNW) 07:58:58 137.62
Cubesat XI-IV 23 Jan 07:51:16 07:56:11 39° 292° (WNW) 08:01:06 437.490
CUTE 1.7 + AOD 2 23 Jan 07:52:59 07:57:01 39° 97° (E) 08:01:03 437.475
PCSat 23 Jan 07:53:25 07:56:12 14° 39° (NE) 07:58:59 145.827
DOVE 4 23 Jan 07:57:21 08:00:35 22° 292° (WNW) 08:03:48 437.250
LilacSat-2 23 Jan 07:59:13 08:01:37 16° 294° (WNW) 08:04:01 437.200
CUBEBUG 2 23 Jan 08:00:00 08:03:20 21° 94° (E) 08:06:42 437.445
RS-15 23 Jan 08:01:56 08:14:16 65° 51° (NE) 08:26:06 29.354- 29.394
STRAND 1 23 Jan 08:11:16 08:15:22 24° 266° (W) 08:19:31 437.568
GONETS M04 23 Jan 08:19:31 08:27:46 46° 272° (W) 08:36:01
NOAA 18 23 Jan 08:20:31 08:25:36 41° 292° (WNW) 08:30:39 137.9125
UWE-3 23 Jan 08:21:43 08:25:14 23° 94° (E) 08:28:47 435.000/436.395/437.385
SO-50 23 Jan 08:22:10 08:26:42 46° 308° (NW) 08:31:12 436.795
CANX-2 23 Jan 08:22:43 08:27:03 80° 284° (WNW) 08:31:19 2200.000
COMPASS 1 23 Jan 08:26:44 08:30:44 40° 98° (E) 08:34:41 437.405
SEEDS 23 Jan 08:27:13 08:31:28 65° 101° (ESE) 08:35:40 437.485
ZACube-1 23 Jan 08:33:44 08:36:49 18° 93° (E) 08:39:57 437.345
AAUSAT CUBESAT 2 23 Jan 08:34:50 08:38:45 38° 97° (E) 08:42:38 437.432
HO-68 23 Jan 08:46:36 08:53:48 80° 288° (WNW) 09:00:57 435.675
CUTE-I 23 Jan 08:48:53 08:51:20 13° 302° (WNW) 08:53:47 437.470
UNISAT 6 23 Jan 08:48:54 08:51:27 16° 64° (ENE) 08:54:02 437.425
Cosmos 2499 23 Jan 08:58:40 09:02:31 16° 281° (W) 09:06:21 435.465 / 435.565
TIGRISAT 23 Jan 09:00:42 09:03:43 19° 66° (ENE) 09:06:46 435.000
PRISM 23 Jan 09:01:42 09:05:51 73° 74° (ENE) 09:10:01 437.425
CINEMA 3 23 Jan 09:03:18 09:06:22 20° 293° (WNW) 09:09:31 145.822/145.860
Oscar 11 23 Jan 09:03:42 09:07:35 31° 96° (E) 09:11:28 145.826/435.025
ANTELSAT 23 Jan 09:15:58 09:19:40 29° 69° (ENE) 09:23:22 437.575/2403.000
DELFI C3 23 Jan 09:25:03 09:27:38 17° 92° (E) 09:30:12 145.870
CUTE 1.7 + AOD 2 23 Jan 09:29:34 09:32:33 19° 294° (WNW) 09:35:33 437.475
PCSat 23 Jan 09:35:09 09:40:36 72° 59° (ENE) 09:46:00 145.827
JAS-2 23 Jan 09:35:17 09:39:23 22° 60° (ENE) 09:43:47 435.910
CUBEBUG 2 23 Jan 09:36:01 09:40:01 36° 289° (WNW) 09:44:08 437.445
FUNcube-1 23 Jan 09:43:51 09:48:17 84° 286° (WNW) 09:52:48 145.935
HUMSAT D 23 Jan 09:52:24 09:55:36 20° 93° (E) 09:58:48 437.325/437.525
UWE-3 23 Jan 09:57:45 10:01:43 33° 289° (WNW) 10:05:46 435.000/436.395/437.385
COMPASS 1 23 Jan 10:03:10 10:05:57 17° 294° (WNW) 10:08:43 437.405
SEEDS 23 Jan 10:04:58 10:06:35 12° 297° (WNW) 10:08:13 437.485
ZACube-1 23 Jan 10:09:05 10:13:15 41° 288° (WNW) 10:17:28 437.345
AAUSAT CUBESAT 2 23 Jan 10:11:03 10:13:55 18° 294° (WNW) 10:16:47 437.432
DUCHIFAT 1 23 Jan 10:13:38 10:14:02 10° 61° (ENE) 10:14:26 145.980
RS-15 23 Jan 10:15:12 10:26:09 41° 254° (WSW) 10:36:43 29.354- 29.394
NANOSAT C BR1 23 Jan 10:19:11 10:21:11 13° 63° (ENE) 10:23:12 145.865
UNISAT 6 23 Jan 10:23:41 10:27:47 46° 261° (W) 10:31:55 437.425
TIGRISAT 23 Jan 10:36:14 10:40:09 36° 262° (W) 10:44:06 435.000
HO-68 23 Jan 10:36:17 10:40:25 16° 307° (NW) 10:44:32 435.675
Oscar 11 23 Jan 10:40:04 10:43:34 24° 292° (WNW) 10:47:02 145.826/435.025
ANTELSAT 23 Jan 10:52:59 10:56:23 23° 265° (W) 10:59:48 437.575/2403.000
DELFI C3 23 Jan 10:58:53 11:02:34 36° 288° (WNW) 11:06:12 145.870
QB50P1 23 Jan 11:11:08 11:15:12 52° 73° (ENE) 11:19:17 145.935-145.965
POLYITAN 1 23 Jan 11:16:18 11:20:25 61° 74° (ENE) 11:24:34 437.675
QB50P2 23 Jan 11:17:38 11:21:47 68° 75° (ENE) 11:25:58 145.880/145.840
JAS-2 23 Jan 11:18:40 11:23:55 54° 261° (W) 11:29:46 435.910
PCSat 23 Jan 11:20:13 11:23:20 16° 256° (WSW) 11:26:27 145.827
HUMSAT D 23 Jan 11:27:22 11:31:17 35° 289° (WNW) 11:35:12 437.325/437.525
VELOX 1 23 Jan 11:35:38 11:37:10 12° 90° (E) 11:38:42 145.980
ESTCUBE 1 23 Jan 11:36:24 11:40:34 35° 97° (E) 11:44:42 437.505/2401.250
POPSAT HIP 1 23 Jan 11:38:17 11:42:28 77° 259° (WSW) 11:46:40 437.405
DUCHIFAT 1 23 Jan 11:44:56 11:49:05 75° 258° (WSW) 11:53:16 145.980
NANOSAT C BR1 23 Jan 11:52:20 11:56:26 55° 260° (W) 12:00:33 145.865
50 SAT 23 Jan 11:55:09 11:56:26 12° 92° (E) 11:57:44 437.505
BY70-1 23 Jan 11:56:01 11:59:09 52° 286° (WNW) 12:02:03 436.1900
BUGSAT 1 23 Jan 12:06:13 12:10:14 66° 75° (ENE) 12:14:14 437.445
CUBEBUG 1 23 Jan 12:11:22 12:15:34 49° 99° (E) 12:19:44 437.445
CUSAT 1 23 Jan 12:18:24 12:22:26 15° 56° (NE) 12:26:20 437.405
AO-85 23 Jan 12:26:49 12:29:44 16° 111° (ESE) 12:32:31 145.980
Cosmos 2491 23 Jan 12:34:52 12:43:02 40° 72° (ENE) 12:51:09 435.465 / 435.565
AISAT 23 Jan 12:36:28 12:40:49 59° 101° (E) 12:45:07 437.250
YUBILEINY 23 Jan 12:43:32 12:48:39 17° 76° (ENE) 12:53:45 435.215
Oscar 19 23 Jan 12:44:17 12:49:15 47° 70° (ENE) 12:54:14 437.125/150
QB50P1 23 Jan 12:49:22 12:51:17 13° 269° (W) 12:53:11 145.935-145.965
POLYITAN 1 23 Jan 12:55:26 12:56:36 11° 270° (W) 12:57:46 437.675
VELOX 1 23 Jan 13:09:41 13:14:03 63° 286° (WNW) 13:18:21 145.980
SPROUT 23 Jan 13:13:23 13:17:39 74° 284° (WNW) 13:21:53 437.525
ESTCUBE 1 23 Jan 13:13:38 13:17:09 23° 294° (WNW) 13:20:40 437.505/2401.250
UKube-1 23 Jan 13:23:01 13:27:18 61° 101° (ESE) 13:31:32 .
Gurwin Techsat 1B 23 Jan 13:24:50 13:30:02 60° 72° (ENE) 13:35:17 435.225
50 SAT 23 Jan 13:26:30 13:29:51 40° 287° (WNW) 13:33:09 437.505
DX 1 23 Jan 13:30:37 13:34:58 79° 284° (WNW) 13:39:17 434.975-435.025
AIST 1 23 Jan 13:33:12 13:37:12 36° 91° (E) 13:41:11
ITAMSAT 1 23 Jan 13:36:37 13:39:48 17° 61° (ENE) 13:42:59 435.822/435.867
DANDE 23 Jan 13:39:18 13:45:22 23° 65° (ENE) 13:51:37 436.750
Cosmos 2504 23 Jan 13:45:26 13:51:46 24° 82° (E) 13:57:50 435.465 / 435.565
CUBEBUG 1 23 Jan 13:48:51 13:51:26 16° 296° (WNW) 13:54:01 437.445
AO-7 23 Jan 13:52:14 13:59:16 32° 57° (ENE) 14:06:19 29.400- 29.500
CUSAT 1 23 Jan 13:58:01 14:06:01 67° 77° (ENE) 14:13:06 437.405
AO-85 23 Jan 14:05:10 14:09:47 57° 305° (NW) 14:14:05 145.980
AISAT 23 Jan 14:14:32 14:16:47 14° 297° (WNW) 14:18:59 437.250
Oscar 19 23 Jan 14:24:52 14:28:46 21° 267° (W) 14:32:42 437.125/150
TISAT 1 23 Jan 14:29:20 14:33:31 76° 284° (WNW) 14:37:41 437.305
Cosmos 2491 23 Jan 14:31:43 14:39:55 46° 272° (W) 14:48:07 435.465 / 435.565
YUBILEINY 23 Jan 14:35:13 14:44:03 87° 96° (E) 14:52:57 435.215
ITUPSAT 1 23 Jan 14:38:40 14:42:38 25° 95° (E) 14:46:34 437.325
